sat.trackr.live / text

‹ back to catalog

ONEWEB-0161

NORAD 48053 · 2021-025M

PAYLOAD ACTIVE UNKNOWN

§ Identity

Operator
Country
UK
Launch date
2021-03-25
Launch site
VOSTO
Launch vehicle
Mass (kg)
RCS (m²)

Purposes: comms

External: N2YO · Heavens-Above · Gunter

§ Orbital elements

Epoch: 2026-09-19T22:24:47.416896Z

Period
109.63 min
Inclination
87.8915°
Eccentricity
0.0001721
Mean motion
13.13469792 rev/d
Perigee alt
1,208.5 km
Apogee alt
1,211.1 km
Semi-major
7,587.9 km
B*
2.9273e-4
RAAN
301.3742°
Arg perigee
97.4328°
Mean anomaly
262.6997°
Rev number
26,594

§ Raw data

ONEWEB-01611 48053U 21025M   26262.93388214  .00000120  00000+0  29273-3 0  99942 48053  87.8915 301.3742 0001721  97.4328 262.6997 13.13469792265946

JSON: /api/v1/satellites/48053 · /tle

For live sub-satellite position, see the globe view (requires WebGL).

§ Visibility from observer

Set your observer location to see the next 7 days of passes ≥ 10°. The values pass through the URL so the page stays shareable.

No JS? Fill the form by hand. The geolocation button needs JavaScript.